Regional Weather Roundup
Issued by NWS

Home | Current Version | Previous Version | Text Only | Print | Product List | Glossary Off
Versions: 1 2 3 4 5 6 7 8 9 10 11 12 13 14 15 16 17 18 19 20 21 22 23 24 25 26 27 28 29 30 31 32 33 34 35 36 37 38 39 40 41 42 43 44 45 46 47 48 49 50

458
ASUS43 KMPX 262110
RWRMN
WEATHER ROUNDUP FOR MINNESOTA
NATIONAL WEATHER SERVICE TWIN CITIES/CHANHASSEN MN
400 PM CDT WED JUL 26 2017


NOTE: "FAIR" INDICATES FEW OR NO CLOUDS BELOW 12,000 FEET WITH NO
SIGNIFICANT WEATHER AND/OR OBSTRUCTIONS TO VISIBILITY. N/A MEANS
CURRENT SKY AND/OR WEATHER CONDITIONS ARE NOT AVAILABLE.

MNZ060>063-068>070-262200-
   Twin Cities Metro

CITY           SKY/WX    TMP DP  RH WIND       PRES   REMARKS
TWIN CITIES    MOSUNNY   84  61  45 NW8       29.99S
ST PAUL        MOSUNNY   83  63  50 NW12      29.98F
CRYSTAL        SUNNY     83  58  42 NW8       29.98S
BLAINE         MOSUNNY   84  61  45 NW12G26   29.99S
LAKEVILLE      MOSUNNY   81  68  65 W7        29.99F
EDEN PRAIRIE   MOSUNNY   83  64  52 NW7       29.99S
SOUTH ST PAUL  CLOUDY    82  62  50 NW5       29.98S
LAKE ELMO      FAIR      81  64  57 NW8       30.00S
$$
MNZ001>005-007-008-013>017-022>024-027-028-262200-
   Northwest Minnesota

CITY           SKY/WX    TMP DP  RH WIND       PRES   REMARKS
BEMIDJI        MOSUNNY   76  58  53 N7        30.04S
HALLOCK        MOSUNNY   81  61  50 NW10G17   30.05S
ROSEAU         MOSUNNY   81  64  57 W7        30.03S
WARROAD        SUNNY     79  63  57 N9        30.02F
THIEF RVR FALL MOSUNNY   79  59  50 NW9       30.05F
CROOKSTON      SUNNY     81  61  50 N13       30.05S
FOSSTON        MOSUNNY   79  61  53 NW7       30.05S
DETROIT LAKES  SUNNY     77  63  61 N8        30.07S
MOORHEAD       MOSUNNY   81  61  50 NW12      30.05S
PARK RAPIDS    PTSUNNY   80  58  46 NW9       30.03S
MAHNOMEN       FAIR      79  60  52 NW9       30.05S
$$
MNZ006-009>011-018-025>026-262200-
   North Central Minnesota

CITY           SKY/WX    TMP DP  RH WIND       PRES   REMARKS
BAUDETTE       SUNNY     80  58  46 NW9       30.01F
FLAG ISLAND    SUNNY     79  57  47 N10       30.00S
INTL FALLS     PTSUNNY   81  57  43 N12       29.99S
WASKISH        CLOUDY    81  59  47 N9        30.02S
BIG FORK       MOSUNNY   79  57  47 N6        30.01S
LONGVILLE      SUNNY     79  59  50 NW7       30.03S
GRAND RAPIDS   MOSUNNY   78  61  55 NW9       30.03S
CRANE LAKE     PTSUNNY   75  57  53 N10       29.99S
ORR            MOSUNNY   79  55  44 NW7       29.97S
COOK             N/A     79  57  47 W9G17     29.99S
WALKER         MOCLDY    79  60  51 NW8       30.03S
$$
MNZ012-019>021-037-262200-
   Northeast Minnesota

CITY           SKY/WX    TMP DP  RH WIND       PRES   REMARKS
DULUTH         MOSUNNY   77  59  53 N9        29.99S
ELY            PTSUNNY   79  55  44 W9G17     29.98S
HIBBING        PTSUNNY   76  59  55 W6        29.99F
EVELETH        MOSUNNY   78  47  33 NW7       30.00F
DULUTH HARBOR  MOSUNNY   82  64  54 W10       29.96S
TWO HARBORS    MOSUNNY   82  63  51 N8        29.95S
SILVER BAY     MOSUNNY   82  55  39 NW3       29.95R
GRAND MARAIS     N/A     68  60  75 W8        29.91S
G MARAIS ARPRT MOSUNNY   75  52  43 NW5       29.98S
$$
MNZ029>031-032-039>041-046>048-054>057-064-262200-
   West Central Minnesota

CITY           SKY/WX    TMP DP  RH WIND       PRES   REMARKS
FERGUS FALLS   MOSUNNY   79  63  57 N7        30.04S
WHEATON        SUNNY     81  57  44 NW10      30.07S
MORRIS         MOSUNNY   84  59  42 NW9       30.04S
ALEXANDRIA     MOSUNNY   78  61  55 NW12      30.06S
ELBOW LAKE     FAIR      78  62  58 NW10G17   30.06S
WADENA         PTSUNNY   79  59  50 NW5       30.04S
GLENWOOD       SUNNY     79  61  53 W8        30.06R
APPLETON       MOSUNNY   82  57  42 NW9       30.04F
BENSON         MOSUNNY   81  61  50 N10       30.06S
ORTONVILLE     SUNNY     81  59  47 MISG      30.05F
MADISON        MOSUNNY   84  63  48 N6        30.05F
WILLMAR        FAIR      81  63  54 NW10      30.05S
$$
MNZ033>034-036-042>043-049>051-058-059-262200-
   Central Minnesota

CITY           SKY/WX    TMP DP  RH WIND       PRES   REMARKS
ST CLOUD       MOSUNNY   81  61  50 N8        30.01S
SAUK CENTRE    FAIR      81  61  50 W8        30.04S
PAYNESVILLE    MOSUNNY   83  60  45 NW6       30.04S
AITKIN         MOSUNNY   79  59  50 W6        30.00S
PINE RIVER     MOSUNNY   81  61  50 N5        30.05S
BRAINERD       MOSUNNY   79  58  48 NW6       30.02S
STAPLES        MOSUNNY   82  57  42 N7        30.03S
LONG PRAIRIE   FAIR      79  61  53 W9        30.05R
LITTLE FALLS   PTSUNNY   81  55  41 NW7       30.02S
LITCHFIELD     SUNNY     82  61  47 N8        30.02F
BUFFALO        MOSUNNY   83  58  43 NW8       30.01S
MAPLE LAKE     MOSUNNY   84  63  48 NW8       30.02S
HUTCHINSON     SUNNY     81  61  50 N6        30.03S
$$
MNZ037-044-045-052-053-262200-
   East Central Minnesota

CITY           SKY/WX    TMP DP  RH WIND       PRES   REMARKS
PRINCETON      MOSUNNY   84  63  48 NW8       30.01S
MORA           SUNNY     79  55  44 N7        30.02S
CAMBRIDGE      MOSUNNY   82  64  54 W7        29.98S
RUSH CITY      MOSUNNY   81  60  49 NW8       30.00S
MOOSE LAKE     MOSUNNY   77  61  57 NW3       29.98S
HINCKLEY       MOCLDY    81  63  54 W5        29.99F
CLOQUET        SUNNY     81  57  44 NW7       29.99S
MCGREGOR       MOSUNNY   79  59  50 NW7       30.01S
$$
MNZ071>073-080-081-089-090-097-098-262200-
   Southwest Minnesota

CITY           SKY/WX    TMP DP  RH WIND       PRES   REMARKS
MONTEVIDEO     SUNNY     84  64  51 NE9       30.05S
GRANITE FALLS  SUNNY     82  62  50 NW10      30.05S
CANBY          SUNNY     84  57  39 N9        30.07S
MARSHALL       SUNNY     79  60  52 N9        30.05S
REDWOOD FALLS  SUNNY     82  59  45 NW10      30.02F
OLIVIA         SUNNY     79  61  53 N9        30.03S
PIPESTONE      SUNNY     81  59  47 NE10      30.07S
WINDOM         SUNNY     81  64  57 N12       30.03S
WORTHINGTON    PTSUNNY   81  65  58 N12       30.04F
JACKSON        PTSUNNY   77  68  73 CALM      30.03S
TRACY          SUNNY     80  65  59 N9        30.05S
SLAYTON        HVY RAIN  79  63  58 N13       30.06S
$$
MNZ065>067-074>077-082>085-091>093-262200-
   South Central Minnesota

CITY           SKY/WX    TMP DP  RH WIND       PRES   REMARKS
MANKATO        MOSUNNY   80  70  71 NW5       30.01F
NEW ULM        SUNNY     81  63  54 NW9       30.01S
ST JAMES       MOSUNNY   81  70  69 NW5       30.02S
FAIRMONT       CLOUDY    81  71  71 VRB5      30.01S
GLENCOE        SUNNY     81  65  57 N7        30.01S
FARIBAULT      MOSUNNY   79  70  73 W3        30.00F
OWATONNA       CLOUDY    79  70  73 NW7       30.00F
WASECA         CLOUDY    77  70  78 NW7       30.02S
ALBERT LEA     CLOUDY    81  72  74 SW3       30.00S
$$
MNZ078>079-086>088-094>096-262200-
   Southeast Minnesota

CITY           SKY/WX    TMP DP  RH WIND       PRES   REMARKS
ROCHESTER      CLOUDY    79  72  79 N7        30.00F
RED WING       CLOUDY    81  70  69 NW5       29.97F
STANTON        CLOUDY    80  70  72 NW8       29.98F
DODGE CENTER   CLOUDY    79  70  73 NW7       30.00F
WINONA         CLOUDY    77  70  78 N3        29.99F
AUSTIN         CLOUDY    79  70  73 S6        30.00S
PRESTON        CLOUDY    78  68  72 S3        30.01F
$$
ABBREVIATIONS USED IN REMARKS
   TC - TEMPERATURES IN CELSIUS
  WCI - WIND CHILL INDEX
   HX - HEAT INDEX
  VSB - VISIBILITY
$$




USA.gov is the U.S. government's official web portal to all federal, state and local government web resources and services.